CZ-6A DEB

Satellite information

Favourite Embed

Satellite Type and Status

DEBRISIN ORBIT

Key statistics

Satellite CZ-6A DEB at a glance.

Uptime

1128

Days in orbit

Revolutions

≈ 14.2

Per day

Orbit

SSO

Sun Synchronous Orbit

Inclination

98.9

Latest

Satellite identification and parameters

Extended collection of information and parameters for CZ-6A DEB.

Object identification

Identified? True

Debris? True

Object name: CZ-6A DEB

International designator: 2022-151AEG

Object number (NORAD): 56608

Object ID (CCSDS): 56608

Country: PEOPLES REPUBLIC OF CHINA (PRC)

Current information (Y/N): Y

RCS size: SMALL

Orbital parameters

Period: 101.715 minutes

Inclination: 98.9052 deg

SMA: 7217.99 km

Apoapsis: 864.736 km

Periapsis: 814.975 km

RAAN: 3.5725 deg

Eccentricy: 0.00344703

Argument of periapsis: 138.0072 deg

Mean anomaly: 222.3754 deg

Mean motion: 14.15723133 rev/day

Mean motion (dot): 0.0000244 rev/day2

B* drag term: 0.0012587766 1/REarth

Two-line elements (TLE)

Creation date: Dec. 11, 2025, 3:54 a.m.

Reference frame: TEME

Reference center: EARTH

Epoch: Dec. 10, 2025, 6:35 p.m. UTC

TLE line 0: 0 CZ-6A DEB

TLE line 1: 1 56608U 22151AEG 25344.77432638 .00002440 00000-0 12588-2 0 9990

TLE line 2: 2 56608 98.9052 3.5725 0034470 138.0072 222.3754 14.15723133135904

Live tracking on map

Real-time ground track for satellite CZ-6A DEB.

In-orbit conjunctions

A list of the most updated potential collisions computed for object CZ-6A DEB.

Target Orbit TCA Probability of collision Miss distance Type
CZ-6A DEB LEO 2025-04-27 03:19:46 0.0001539374 66.0 (m) DEBRIS
SL-3 R/B LEO 2024-12-03 05:01:52 0.000113088 527.0 (m) ROCKET BODY
SL-3 R/B LEO 2024-10-09 10:49:39 0.0003309959 326.0 (m) ROCKET BODY
FENGYUN 1C DEB SSO 2024-09-03 22:50:54 0.0002873971 220.0 (m) DEBRIS
FENGYUN 1C DEB SSO 2024-06-22 17:50:16 0.0001112499 176.0 (m) DEBRIS

Associated space launch

Chinese satellite reported for atmospheric/ocean/environmental/spatial parameter research purposes, details TBD.

CZ-6A DEB was lifted into orbit during the mission ‘Long March 6A | Yunhai 3’, on board a Long March 6A space rocket.

The launch took place on Nov. 11, 2022, 10:52 p.m. from Launch Complex 9A.

For more information about the launch, click the button.

Launch to space Long March 6A | Yunhai 3
Long March 6A | Yunhai 3

Agency: N/A

Status: Launch Successful

Launch date: Nov. 11, 2022, 10:52 p.m. UTC

Rocket: Long March 6A

Launch pad: Launch Complex 9A

Location: Taiyuan Satellite Launch Center, People's Republic of China

...

Latest news about this satellite

There are no fresh news available about this satellite. Check back as we update our databases every day.


Newsletter sign-up

Weekly statistics, charts and insights to help you stay on top of the space industry.